Chattanooga, TN

10:35 PM EST on February 05, 2016 (GMT -0500)
Lovell

Weather History for KCHA - June, 2014

Change the Weather History Date:

Friday, June 27, 2014

  Actual Average Record
Temperature  
Mean Temperature 81 °F 79 °F  
Max Temperature 89 °F 89 °F 102 °F (1952)
Min Temperature 73 °F 68 °F 52 °F (1974)
Degree Days  
Heating Degree Days 0 0  
Month to date heating degree days 0 0  
Since 1 June heating degree days 0 0  
Since 1 July heating degree days 3396 3238  
Cooling Degree Days 16 14  
Month to date cooling degree days 362 303  
Year to date cooling degree days 620 499  
Since 1 June cooling degree days 362 303  
Growing Degree Days 31 (Base 50)    
Moisture  
Dew Point 68 °F    
Average Humidity 67    
Maximum Humidity 87    
Minimum Humidity 46    
Precipitation  
Precipitation 0.00 in 0.15 in 2.11 in (1888)
Month to date precipitation 3.87 3.60  
Year to date precipitation 21.16 26.42  
Snow  
Snow 0.00 in 0.00 in - ()
Month to date snowfall 0.0 0.0  
Since 1 June snowfall 0.0 0.0  
Since 1 July snowfall 8.4 3.9  
Snow Depth 0.00 in    
Sea Level Pressure  
Sea Level Pressure 30.04 in    
Wind  
Wind Speed 3 mph (SW)    
Max Wind Speed 21 mph    
Max Gust Speed 28 mph    
Visibility 10 miles    
Events      
T = Trace of Precipitation, MM = Missing Value Source: NWS Daily Summary

Daily Weather History Graph

Daily Weather History Graph

Search for Another Location

Airport or City:

Trip Planner

Search our weather history database for the weather conditions in past years. The results will help you decide how hot, cold, wet, or windy it might be!

Date:

Astronomy

Jun. 27, 2014 Rise Set
Actual Time 6:28 AM EDT 8:58 PM EDT
Civil Twilight 5:59 AM EDT 9:28 PM EDT
Nautical Twilight 5:22 AM EDT 10:05 PM EDT
Astronomical Twilight 4:41 AM EDT 10:45 PM EDT
Moon 6:54 AM EDT (6/27) 9:07 PM EDT (6/27)
Length of Visible Light 15h 29m
Length of Day
14h 30m
New Moon, 0% of the Moon is Illuminated
Jun 27
New Moon
Jul 5
First Quarter
Jul 12
Full
Jul 18
Last Quarter
Jul 26
New

Hourly Weather History & Observations

Time (EDT) Temp. Heat Index Dew Point Humidity Pressure Visibility Wind Dir Wind Speed Gust Speed Precip Events Conditions
12:53 AM 73.0 °F - 64.9 °F 76% 30.02 in 10.0 mi South 3.5 mph - N/A   Scattered Clouds
1:53 AM 73.0 °F - 66.9 °F 81% 30.01 in 10.0 mi Calm Calm - N/A   Mostly Cloudy
2:53 AM 73.0 °F - 68.0 °F 84% 30.01 in 10.0 mi Calm Calm - N/A   Overcast
3:53 AM 73.0 °F - 68.0 °F 84% 29.99 in 10.0 mi Calm Calm - N/A   Partly Cloudy
4:53 AM 73.0 °F - 68.0 °F 84% 30.00 in 10.0 mi Calm Calm - N/A   Partly Cloudy
5:53 AM 73.9 °F - 68.0 °F 82% 30.01 in 10.0 mi Calm Calm - N/A   Scattered Clouds
6:53 AM 73.0 °F - 69.1 °F 87% 30.03 in 10.0 mi Calm Calm - N/A   Mostly Cloudy
7:53 AM 73.9 °F - 69.1 °F 85% 30.04 in 10.0 mi Calm Calm - N/A   Mostly Cloudy
8:53 AM 78.1 °F - 69.1 °F 74% 30.05 in 10.0 mi NW 3.5 mph - N/A   Mostly Cloudy
9:53 AM 81.0 °F 83.8 °F 68.0 °F 65% 30.07 in 10.0 mi NNW 4.6 mph - N/A   Mostly Cloudy
10:53 AM 84.0 °F 87.8 °F 69.1 °F 61% 30.07 in 10.0 mi Calm Calm - N/A   Mostly Cloudy
11:53 AM 84.9 °F 88.2 °F 68.0 °F 57% 30.07 in 10.0 mi Variable 3.5 mph - N/A   Mostly Cloudy
12:53 PM 86.0 °F 88.8 °F 66.9 °F 53% 30.06 in 10.0 mi Variable 4.6 mph - N/A   Mostly Cloudy
1:53 PM 87.8 °F 90.4 °F 66.2 °F 49% 30.07 in 10.0 mi ESE 5.8 mph - N/A   Mostly Cloudy
2:53 PM 87.1 °F 89.2 °F 66.0 °F 49% 30.03 in 10.0 mi SW 3.5 mph - N/A   Mostly Cloudy
3:53 PM 88.0 °F 89.6 °F 64.9 °F 46% 30.02 in 10.0 mi West 6.9 mph - N/A   Mostly Cloudy
4:53 PM 82.0 °F 84.5 °F 66.9 °F 60% 30.03 in 10.0 mi West 13.8 mph - N/A   Mostly Cloudy
5:53 PM 84.9 °F 88.2 °F 68.0 °F 57% 30.04 in 10.0 mi WNW 9.2 mph - N/A   Mostly Cloudy
6:53 PM 82.9 °F 85.0 °F 66.0 °F 56% 30.03 in 10.0 mi WSW 5.8 mph - N/A   Mostly Cloudy
7:53 PM 82.0 °F 84.5 °F 66.9 °F 60% 30.04 in 10.0 mi WSW 4.6 mph - N/A   Mostly Cloudy
8:53 PM 81.0 °F 83.3 °F 66.9 °F 62% 30.04 in 10.0 mi Calm Calm - N/A   Mostly Cloudy
9:53 PM 78.1 °F - 71.1 °F 79% 30.06 in 10.0 mi SE 3.5 mph - N/A   Mostly Cloudy
10:53 PM 77.0 °F - 71.1 °F 82% 30.08 in 10.0 mi SE 3.5 mph - N/A   Mostly Cloudy
11:53 PM 75.9 °F - 70.0 °F 82% 30.10 in 10.0 mi ESE 3.5 mph - N/A   Mostly Cloudy